Location: Newark
(53.3333°N, 83.7500°E)
Time: 22:15:09
(UTC+00:00)

SR - Pass Details

Date: 19 November 2019
Orbit: 573 x 882 km, 66.7° (Epoch: 05 December)

Event Time Altitude Azimuth Distance (km) Brightness Sun altitude
Rises 15:42:58 0° 316° (NW) 3,458 ? -45.9°
Reaches altitude 10° 15:45:37 10° 324° (NW) 2,538 ? -46.2°
Enters shadow 15:46:04 12° 326° (NW) 2,394 ? -46.3°
